User: anonymous   Login
Location: Unspecified
(0.0000°N, 0.0000°E)
Time: 10:50:25
(UTC+00:00)
Language:

STARLINK-11098 [DTC] - Orbit

View from above orbital plane
View from above orbital plane
View from above satellite
View from above satellite

Ground track
Ground track

The orbit is defined by the following mean orbital elements,

1 59760U          26145.40749855 +.00000000 +00000-0 +11403-4 0 00003
2 59760  53.1575 188.0073 0000991  75.2591 284.8537 15.69703465    03
Epoch (UTC): 25 May 2026 09:46:47
Eccentricity: 0.0000991
inclination: 53.1575°
perigee height: 359 km
apogee height: 360 km
right ascension of ascending node: 188.0073°
argument of perigee: 75.2591°
revolutions per day: 15.69703465
mean anomaly at epoch: 284.8537°

The dashed part of the orbit path shows where the satellite is in the earth's shadow,  

DLR